Columbia, SC

5:07 AM EDT on September 22, 2019 (GMT -0400)
Columbia Metro

Weather History for KCAE - August, 2019

Change the Weather History Date:

Thursday, August 22, 2019

  Actual Average Record
Temperature  
Mean Temperature 85 °F 80 °F  
Max Temperature 95 °F 90 °F 106 °F (1983)
Min Temperature 75 °F 71 °F 58 °F (1998)
Degree Days  
Heating Degree Days 0 0  
Month to date heating degree days 0 0  
Since 1 June heating degree days 0 1  
Since 1 July heating degree days 0 0  
Cooling Degree Days 20 15  
Month to date cooling degree days 427 361  
Year to date cooling degree days 1918 1638  
Since 1 June cooling degree days 1398 1317  
Growing Degree Days 35 (Base 50)    
Moisture  
Dew Point 71 °F    
Average Humidity 66    
Maximum Humidity 82    
Minimum Humidity 49    
Precipitation  
Precipitation 0.17 in 0.16 in 2.18 in (1979)
Month to date precipitation 0.83 3.90  
Year to date precipitation 25.07 30.56  
Sea Level Pressure  
Sea Level Pressure 30.01 in    
Wind  
Wind Speed 7 mph (South)    
Max Wind Speed 25 mph    
Max Gust Speed 30 mph    
Visibility 9 miles    
Events Rain , Thunderstorm    
T = Trace of Precipitation, MM = Missing Value Source: NWS Daily Summary

Daily Weather History Graph

Daily Weather History Graph

Search for Another Location

Airport or City:

Astronomy

Aug. 22, 2019 Rise Set
Actual Time 6:50 AM EDT 8:03 PM EDT
Civil Twilight 6:24 AM EDT 8:29 PM EDT
Nautical Twilight 5:53 AM EDT 9:00 PM EDT
Astronomical Twilight 5:21 AM EDT 9:32 PM EDT
Moon No Moon Rise 1:07 PM EDT
Length of Visible Light 14h 04m
Length of Day
13h 12m
Waning Gibbous, 60% of the Moon is Illuminated
Aug 22
Waning Gibbous
Aug 23
Last Quarter
Aug 30
New
Sep 5
First Quarter
Sep 14
Full

Hourly Weather History & Observations

Time (EDT) Temp. Heat Index Dew Point Humidity Pressure Visibility Wind Dir Wind Speed Gust Speed Precip Events Conditions
12:56 AM 80.1 °F 82.9 °F 69.1 °F 69% 30.05 in 10.0 mi SW 6.9 mph - N/A   Clear
1:56 AM 79.0 °F - 70.0 °F 74% 30.04 in 10.0 mi SSW 6.9 mph - N/A   Clear
2:56 AM 78.1 °F - 70.0 °F 76% 30.02 in 10.0 mi SSW 8.1 mph - N/A   Clear
3:56 AM 77.0 °F - 70.0 °F 79% 30.00 in 10.0 mi SSW 8.1 mph - N/A   Clear
4:56 AM 75.9 °F - 70.0 °F 82% 30.01 in 10.0 mi SSW 5.8 mph - N/A   Clear
5:56 AM 75.0 °F - 70.0 °F 84% 30.02 in 10.0 mi West 4.6 mph - N/A   Clear
6:56 AM 75.0 °F - 70.0 °F 84% 30.04 in 10.0 mi WSW 3.5 mph - N/A   Clear
7:56 AM 77.0 °F - 71.1 °F 82% 30.06 in 10.0 mi WSW 5.8 mph - N/A   Clear
8:56 AM 82.0 °F 86.7 °F 72.0 °F 71% 30.06 in 10.0 mi Variable 5.8 mph - N/A   Partly Cloudy
9:56 AM 84.9 °F 90.1 °F 71.1 °F 63% 30.06 in 10.0 mi WSW 9.2 mph - N/A   Partly Cloudy
10:56 AM 89.1 °F 96.0 °F 72.0 °F 57% 30.06 in 10.0 mi WSW 6.9 mph - N/A   Scattered Clouds
11:56 AM 91.0 °F 97.6 °F 71.1 °F 52% 30.04 in 10.0 mi SW 6.9 mph - N/A   Scattered Clouds
12:56 PM 91.9 °F 97.4 °F 70.0 °F 48% 30.02 in 10.0 mi West 8.1 mph - N/A   Mostly Cloudy
1:44 PM 91.9 °F 97.4 °F 70.0 °F 48% 30.02 in 10.0 mi West 8.1 mph - N/A Thunderstorm Mostly Cloudy
1:56 PM 91.9 °F 96.9 °F 69.1 °F 47% 30.00 in 10.0 mi WSW 9.2 mph - N/A Thunderstorm Mostly Cloudy
2:42 PM 82.9 °F 87.0 °F 70.0 °F 65% 30.02 in 10.0 mi East 17.3 mph - N/A   Overcast
2:47 PM 82.0 °F 85.9 °F 70.0 °F 67% 30.02 in 10.0 mi East 19.6 mph - N/A Thunderstorm Thunderstorm
2:56 PM 80.1 °F 83.2 °F 70.0 °F 71% 30.01 in 10.0 mi East 16.1 mph - N/A Thunderstorm Thunderstorm
3:08 PM 82.0 °F 85.9 °F 70.0 °F 67% 30.01 in 10.0 mi East 12.7 mph - N/A Thunderstorm Overcast
3:23 PM 82.0 °F 85.9 °F 70.0 °F 67% 30.01 in 10.0 mi ESE 10.4 mph - 0.00 in   Overcast
3:56 PM 84.0 °F 88.4 °F 70.0 °F 63% 30.00 in 10.0 mi ESE 10.4 mph - 0.00 in   Mostly Cloudy
4:12 PM 82.0 °F 86.3 °F 71.1 °F 69% 30.00 in 3.0 mi ESE 9.2 mph - 0.00 in Rain , Thunderstorm Light Thunderstorms and Rain
4:33 PM 79.0 °F - 72.0 °F 79% 29.98 in 3.0 mi South 10.4 mph - 0.05 in Rain Heavy Rain
4:56 PM 80.1 °F 84.2 °F 73.0 °F 79% 29.97 in 4.0 mi South 25.3 mph 29.9 mph 0.11 in Rain Rain
5:11 PM 81.0 °F 86.2 °F 73.9 °F 79% 29.97 in 5.0 mi SSE 10.4 mph 26.5 mph 0.01 in Rain , Thunderstorm Light Rain
5:28 PM 80.1 °F 84.2 °F 73.0 °F 79% 29.97 in 2.5 mi South 15.0 mph 20.7 mph 0.01 in Rain , Thunderstorm Rain
5:42 PM 80.6 °F 85.4 °F 73.4 °F 79% 29.98 in 10.0 mi South 13.8 mph - N/A   Mostly Cloudy
5:49 PM 80.1 °F 83.8 °F 72.0 °F 76% 29.98 in 3.0 mi SSE 17.3 mph - 0.06 in Rain , Thunderstorm Light Thunderstorms and Rain
5:56 PM 81.0 °F 84.9 °F 71.1 °F 72% 29.97 in 3.0 mi SSE 5.8 mph - 0.06 in Rain , Thunderstorm Light Thunderstorms and Rain
6:09 PM 81.0 °F 85.2 °F 72.0 °F 74% 29.98 in 10.0 mi SE 8.1 mph - 0.00 in   Overcast
6:56 PM 81.0 °F 86.7 °F 75.0 °F 82% 29.96 in 10.0 mi ESE 3.5 mph - 0.00 in   Mostly Cloudy
7:56 PM 82.0 °F 89.4 °F 75.9 °F 82% 29.96 in 10.0 mi ESE 4.6 mph - N/A   Mostly Cloudy
8:56 PM 82.0 °F 86.7 °F 72.0 °F 71% 29.99 in 10.0 mi Calm Calm - N/A   Mostly Cloudy
10:56 PM 78.1 °F - 71.1 °F 79% 30.02 in 10.0 mi SSW 5.8 mph - N/A   Clear
11:56 PM 78.1 °F - 71.1 °F 79% 30.02 in 10.0 mi South 4.6 mph - N/A   Scattered Clouds